XE3ADC-4 Weather Reports


time (UTC)temp
F
wind
direction
speed
knots
gust
knots
rain 1hr
in
rain 24hr
in
rain mn
in
humidity
%
barometer
mb
20260502184603 104 33 3.5 6.1 0.00 0.00 0.00 4 1011.2
20260502181603 101 222 5.2 7.8 0.00 0.00 0.00 4 1011.4
20260502161603 100 54 2.6 4.3 0.00 0.00 0.00 5 1012.0
20260502151603 103 28 2.6 3.5 0.00 0.00 0.00 5 1011.8
20260502121603 86 0 0.0 0.0 0.00 0.00 0.00 6 1009.3
20260502114603 87 210 0.0 1.7 0.00 0.00 0.00 6 1008.8
20260502111603 88 0 0.0 0.0 0.00 0.00 0.00 6 1008.5
20260502104603 88 183 0.9 1.7 0.00 0.00 0.00 5 1008.1
20260502101603 88 210 0.9 1.7 0.00 0.00 0.00 5 1007.8
20260502064604 90 228 3.5 5.2 0.00 0.00 0.00 5 1007.8
20260502061604 91 226 3.5 6.1 0.00 0.00 0.00 5 1007.8
20260502054604 0 0 0.0 0.0 0.00 0.00 0.00 100
20260502051604 0 0 0.0 0.0 0.00 0.00 0.00 100
20260502044604 0 0 0.0 0.0 0.00 0.00 0.00 100
20260502041604 0 0 0.0 0.0 0.00 0.00 0.00 100
20260502034604 0 225 1.7 1.7 0.00 0.00 0.00 100
20260502031604 92 0 1.7 1.7 0.00 0.00 0.00 7 1006.9
20260502024604 93 141 0.9 2.6 0.00 0.00 0.00 7 1006.4
20260502021604 94 164 0.0 1.7 0.00 0.00 0.00 6 1006.0
20260502014604 93 74 1.7 3.5 0.00 0.00 0.00 7 1005.4
20260502011604 94 13 1.7 2.6 0.00 0.00 0.00 6 1005.0
20260502004604 95 103 2.6 3.5 0.00 0.00 0.00 6 1004.5
20260502001604 97 0 3.5 4.3 0.00 0.00 0.00 6 1004.1
20260501234604 99 0 1.7 1.7 0.00 0.00 0.00 6 1003.8
20260501231604 100 27 4.3 6.1 0.00 0.00 0.00 6 1003.8
20260501224605 101 34 4.3 6.1 0.00 0.00 0.00 5 1003.6
20260501221604 102 60 5.2 7.8 0.00 0.00 0.00 5 1003.7
20260501214604 103 20 3.5 5.2 0.00 0.00 0.00 5 1003.9
20260501211604 104 53 4.3 6.1 0.00 0.00 0.00 5 1004.1
20260501204604 105 22 2.6 3.5 0.00 0.00 0.00 5 1004.6
20260501201604 106 35 2.6 5.2 0.00 0.00 0.00 5 1005.4
20260501194604 105 68 3.5 5.2 0.00 0.00 0.00 5 1005.8
20260501191604 105 82 2.6 4.3 0.00 0.00 0.00 5 1006.6